Regional Weather Roundup
Issued by NWS

Home | Current Version | Previous Version | Graphics & Text | Print | Product List | Glossary On
Versions: 1 2 3 4 5 6 7 8 9 10 11 12 13 14 15 16 17 18 19 20 21 22 23 24 25 26 27
000
ASUS45 KBOU 190907
RWRCO

WEATHER ROUNDUP FOR COLORADO
NATIONAL WEATHER SERVICE DENVER/BOULDER CO
200 AM MST SUN FEB 19 2017

NOTE: "FAIR" INDICATES FEW OR NO CLOUDS BELOW 12000 FEET WITH NO
SIGNIFICANT WEATHER AND/OR OBSTRUCTIONS TO VISIBILITY.

COZ001>005-013-030-031-191000-
...NORTHWEST COLORADO...

CITY           SKY/WX    TMP DP  RH WIND       PRES   REMARKS
CRAIG          CLOUDY    27  23  85 CALM      29.76R
HAYDEN         FAIR      32  27  80 E9        29.76R WCI  24
MEEKER         FAIR      28  26  92 CALM      29.76R
MOUNT WERNER   NOT AVBL
STEAMBOAT SPGS NOT AVBL
WALDEN         NOT AVBL
$$

COZ006>008-011-191000-
...WEST CENTRAL VALLEYS...

CITY           SKY/WX    TMP DP  RH WIND       PRES   REMARKS
GRAND JUNCTION MOCLDY    38  37  97 NW3       29.73F
MONTROSE       FAIR      33  30  88 SE8       29.78S WCI  26
EAGLE          FAIR      30  28  92 SE5       29.80R WCI  25
RIFLE          MOCLDY    33  31  92 CALM      29.76R
DELTA          FAIR      37  34  90 E5        29.77S
NUCLA          FAIR      36  32  87 E6        29.78F
$$

COZ017>023-064>068-191000-
...SOUTHWEST COLORADO...

CITY           SKY/WX    TMP DP  RH WIND       PRES   REMARKS
DURANGO        CLOUDY    37  28  70 E5        29.81S
CORTEZ         FAIR      47  29  49 E12       29.76R
PAGOSA SPRINGS FAIR      35  28  77 CALM      29.87R
TELLURIDE      CLOUDY    38  18  44 CALM      29.84S
WOLF CREEK PAS FAIR      23  19  86 S25G33    29.95S WCI   7
$$

COZ009-010-012-014-032>034-037-058>063-191000-
...CENTRAL COLORADO...

CITY           SKY/WX    TMP DP  RH WIND       PRES   REMARKS
ASPEN          FAIR      29  26  89 VRB3      29.77R
BUENA VISTA    FAIR      38  29  72 E5        29.79S
COPPER MTN     CLOUDY    32  10  40 MISG      29.88S
BERTHOUD PASS  FAIR      21  12  68 W18       29.87S WCI   6
COTTONWOOD PAS FAIR      37  21  52 S5        29.84F
GUNNISON       FAIR      23  20  88 CALM      29.83R
KREMMLING      FAIR      32  28  86 CALM      29.80R
LEADVILLE      FAIR      32  14  47 S8        29.82R WCI  25
MONARCH PASS   MOCLDY    27  21  80 SW25      30.02R WCI  11
SALIDA         FAIR      45  30  55 SW14G24   29.86F
SUNLIGHT       NOT AVBL
WILKERSON PASS CLOUDY    30  21  69 SW7       29.90S WCI  23
$$

COZ069>075-191000-
...SAN LUIS VALLEY/SANGRE DE CRISTO MOUNTAINS...

CITY           SKY/WX    TMP DP  RH WIND       PRES   REMARKS
ALAMOSA        FAIR      28  26  92 E7        29.83R WCI  21
LA VETA PASS   FAIR      30  23  74 NE25G38   29.86S WCI  16
SAGUACHE       FAIR      30  28  93 NW3       29.85S
$$

COZ035-036-038>040-191000-
...NORTHERN COLORADO FRONT RANGE...

CITY           SKY/WX    TMP DP  RH WIND       PRES   REMARKS
DENVER INTL AP FAIR      43  21  41 W3        29.66R
DMNS CITY PARK   N/A     41  22  46 SE3G10    29.67R
AURORA         PTCLDY    44  22  41 S14       29.67S
FRONT RANGE AP FAIR      46  25  42 S16       29.66S
ERIE MUNI ARPT FAIR      33  24  71 CALM      29.66S
BOULDER MUN AP FAIR      43  23  45 CALM      29.65S
CENTENNIAL     FAIR      42  22  44 SE9       29.67S
BROOMFIELD     FAIR      46  21  36 CALM      29.67S
FORT COLLINS   FAIR      39  23  52 CALM      29.66R
LONGMONT       FAIR      36  26  66 CALM      29.68R
$$

COZ041-046-047-076>085-087-088-191000-
...PIKES PEAK/PALMER DIVIDE AND SOUTHERN FOOTHILLS...

CITY           SKY/WX    TMP DP  RH WIND       PRES   REMARKS
COLO. SPRINGS  FAIR      35  20  54 NE9       29.73F WCI  28
A. F. ACADEMY  FAIR      28  19  69 N8        29.73S WCI  20
SCHRIEVER AFB  FAIR      38  22  51 NE12      29.74S
ELLICOTT       FAIR     N/A N/A N/A S14       29.72F
FALCON         NOT AVBL
FORT CARSON    FAIR      36  21  54 N8        29.71F
LIMON          FAIR      42  26  53 E6        29.72S
MONUMENT HILL  FAIR      34  21  60 S13       29.75S WCI  25
TRINIDAD       FAIR      50  27  40 W14       29.76R
$$

COZ042>045-048>051-090-091-191000-
...NORTHEAST COLORADO...

CITY           SKY/WX    TMP DP  RH WIND       PRES   REMARKS
GREELEY ARPT   FAIR      34  22  61 W10       29.66R WCI  26
AKRON          FAIR      48  25  40 S17G26    29.65F
BURLINGTON     FAIR      51  35  54 S25G32    29.70F
WRAY           NOT AVBL
STERLING       FAIR      37  27  65 N3        29.64R
HOLYOKE        FAIR      52  32  46 S15       29.67F
FORT MORGAN    FAIR      44  21  40 CALM      29.65S
$$

COZ086-089-092>099-191000-
...SOUTHEAST COLORADO...

CITY           SKY/WX    TMP DP  RH WIND       PRES   REMARKS
PUEBLO         FAIR      32  23  69 W5        29.69R WCI  27
LA JUNTA       FAIR      53  30  41 S10       29.72R
LAMAR          FAIR      48  34  58 S13       29.72S
SPRINGFIELD      N/A     45  36  70 S12       29.76F
$$




USA.gov is the U.S. government's official web portal to all federal, state and local government web resources and services.